Weather History for KMYR - August, 2013

Change the Weather History Date:

Friday, August 23, 2013

  Actual Average Record
Temperature  
Mean Temperature 81 °F -  
Max Temperature 89 °F 84 °F 95 °F (2002)
Min Temperature 73 °F 70 °F 60 °F (1953)
Cooling Degree Days 16    
Growing Degree Days 31 (Base 50)    
Moisture  
Dew Point 72 °F    
Average Humidity 80    
Maximum Humidity 94    
Minimum Humidity 55    
Precipitation  
Precipitation 0.00 in - - ()
Sea Level Pressure  
Sea Level Pressure 30.01 in    
Wind  
Wind Speed 6 mph (WSW)    
Max Wind Speed 14 mph    
Max Gust Speed -    
Visibility 10 miles    
Events      
Averages and records for this station are not official NWS values.
T = Trace of Precipitation, MM = Missing Value Source: NWS Daily Summary

Daily Weather History Graph

Daily Weather History Graph

Search for Another Location

Airport or City:

Trip Planner

Search our weather history database for the weather conditions in past years. The results will help you decide how hot, cold, wet, or windy it might be!

Date:

Astronomy

Aug. 23, 2013 Rise Set
Actual Time 6:43 AM EDT 7:52 PM EDT
Civil Twilight 6:17 AM EDT 8:18 PM EDT
Nautical Twilight 5:46 AM EDT 8:48 PM EDT
Astronomical Twilight 5:15 AM EDT 9:20 PM EDT
Moon 9:22 PM EDT (8/23) 9:25 AM EDT (8/23)
Length of Visible Light 14h 00m
Length of Day
13h 08m
Waning Gibbous, 91% of the Moon is Illuminated
Aug 23
Waning Gibbous
Aug 28
Last Quarter
Sep 5
New
Sep 12
First Quarter
Sep 19
Full

Hourly Weather History & Observations

Time (EDT) Temp. Heat Index Dew Point Humidity Pressure Visibility Wind Dir Wind Speed Gust Speed Precip Events Conditions
12:15 AM 75.2 °F - 71.6 °F 89% 30.05 in 10.0 mi SW 4.6 mph - N/A   Clear
12:35 AM 75.2 °F - 71.6 °F 89% 30.05 in 10.0 mi SW 3.5 mph - N/A   Clear
12:55 AM 75.2 °F - 69.8 °F 83% 30.05 in 10.0 mi SW 6.9 mph - N/A   Clear
1:15 AM 75.2 °F - 71.6 °F 89% 30.05 in 10.0 mi WSW 8.1 mph - N/A   Clear
1:35 AM 75.2 °F - 69.8 °F 83% 30.05 in 10.0 mi WSW 6.9 mph - N/A   Clear
1:55 AM 75.2 °F - 69.8 °F 83% 30.04 in 10.0 mi WSW 5.8 mph - N/A   Clear
2:15 AM 75.2 °F - 69.8 °F 83% 30.04 in 10.0 mi West 5.8 mph - N/A   Clear
2:35 AM 73.4 °F - 69.8 °F 88% 30.03 in 10.0 mi WSW 5.8 mph - N/A   Clear
2:55 AM 75.2 °F - 69.8 °F 83% 30.02 in 10.0 mi WSW 6.9 mph - N/A   Clear
3:15 AM 73.4 °F - 69.8 °F 88% 30.02 in 10.0 mi WSW 4.6 mph - N/A   Clear
3:35 AM 73.4 °F - 69.8 °F 88% 30.02 in 10.0 mi WSW 5.8 mph - N/A   Clear
3:55 AM 73.4 °F - 69.8 °F 88% 30.02 in 10.0 mi SW 5.8 mph - N/A   Clear
4:15 AM 73.4 °F - 71.6 °F 94% 30.01 in 10.0 mi SW 5.8 mph - N/A   Clear
4:35 AM 73.4 °F - 71.6 °F 94% 30.01 in 10.0 mi WSW 5.8 mph - N/A   Clear
4:55 AM 73.4 °F - 69.8 °F 88% 30.01 in 10.0 mi West 5.8 mph - N/A   Clear
5:15 AM 73.4 °F - 69.8 °F 88% 30.01 in 10.0 mi West 4.6 mph - N/A   Clear
5:35 AM 73.4 °F - 69.8 °F 88% 30.01 in 10.0 mi WSW 4.6 mph - N/A   Clear
5:45 AM 73.4 °F - 69.8 °F 88% 30.00 in 10.0 mi Calm Calm - N/A   Clear
6:45 AM 73.4 °F - 69.8 °F 88% 30.01 in 10.0 mi WSW 5.8 mph - N/A   Clear
8:45 AM 77.0 °F - 71.6 °F 83% 30.04 in 10.0 mi Variable 6.9 mph - N/A   Clear
9:50 AM 80.6 °F 85.4 °F 73.4 °F 79% 30.04 in 10.0 mi West 5.8 mph - N/A   Clear
10:45 AM 82.4 °F 88.2 °F 73.4 °F 74% 30.05 in 10.0 mi West 6.9 mph - N/A   Clear
11:45 AM 86.0 °F 93.4 °F 73.4 °F 66% 30.03 in 10.0 mi West 6.9 mph - N/A   Partly Cloudy
12:00 PM 86.0 °F 93.4 °F 73.4 °F 66% 30.03 in 10.0 mi WNW 9.2 mph - N/A   Scattered Clouds
12:50 PM 87.8 °F 95.6 °F 73.4 °F 62% 30.01 in 10.0 mi WNW 6.9 mph - N/A   Scattered Clouds
1:45 PM 87.8 °F 95.6 °F 73.4 °F 62% 30.00 in 10.0 mi NW 6.9 mph - N/A   Mostly Cloudy
2:45 PM 89.6 °F 98.2 °F 73.4 °F 59% 29.98 in 10.0 mi WNW 9.2 mph - N/A   Mostly Cloudy
3:45 PM 89.6 °F 96.2 °F 71.6 °F 55% 29.96 in 10.0 mi WNW 9.2 mph - N/A   Mostly Cloudy
4:35 PM 89.6 °F 98.2 °F 73.4 °F 59% 29.95 in 10.0 mi SSW 11.5 mph - N/A   Scattered Clouds
4:45 PM 87.8 °F 97.6 °F 75.2 °F 66% 29.95 in 10.0 mi SSW 13.8 mph - N/A   Scattered Clouds
6:45 PM 82.4 °F 88.2 °F 73.4 °F 74% 29.95 in 10.0 mi SSW 8.1 mph - N/A   Partly Cloudy
7:45 PM 82.4 °F 88.2 °F 73.4 °F 74% 29.97 in 10.0 mi SW 5.8 mph - N/A   Partly Cloudy
8:45 PM 80.6 °F 85.4 °F 73.4 °F 79% 29.98 in 10.0 mi WSW 5.8 mph - N/A   Clear
9:45 PM 78.8 °F - 73.4 °F 83% 30.01 in 10.0 mi WSW 5.8 mph - N/A   Clear
10:55 PM 77.0 °F - 73.4 °F 89% 30.03 in 10.0 mi West 4.6 mph - N/A   Clear
11:15 PM 78.8 °F - 73.4 °F 83% 30.03 in 10.0 mi WSW 5.8 mph - N/A   Clear
11:35 PM 77.0 °F - 73.4 °F 89% 30.03 in 10.0 mi WNW 6.9 mph - N/A   Clear
11:55 PM 77.0 °F - 71.6 °F 83% 30.03 in 10.0 mi West 9.2 mph - N/A   Partly Cloudy